Time,TemperatureF,DewpointF,PressureIn,WindDirection,WindDirectionDegrees,WindSpeedMPH,WindSpeedGustMPH,Humidity,HourlyPrecipIn,Conditions,Clouds,dailyrainin,SoftwareType,DateUTC
2013-01-14 00:00:00,65.0,60.0,30.14,NW,326,2.0,-999.0,84,0.00,,,0.00,Wunderground v.1.15,2013-01-14 05:00:00,
2013-01-14 00:02:00,65.0,60.0,30.14,NW,325,2.0,-999.0,84,0.00,,,0.00,Wunderground v.1.15,2013-01-14 05:02:00,
2013-01-14 00:06:00,64.9,59.9,30.14,NW,314,2.0,-999.0,84,0.00,,,0.00,Wunderground v.1.15,2013-01-14 05:06:00,
2013-01-14 00:12:00,64.7,59.8,30.14,NW,316,2.0,-999.0,84,0.00,,,0.00,Wunderground v.1.15,2013-01-14 05:12:00,
2013-01-14 00:18:00,64.5,59.9,30.14,NNW,347,1.0,-999.0,85,0.00,,,0.00,Wunderground v.1.15,2013-01-14 05:18:00,
2013-01-14 00:24:00,64.4,59.8,30.13,NNW,333,1.0,-999.0,85,0.00,,,0.00,Wunderground v.1.15,2013-01-14 05:24:00,
2013-01-14 00:30:00,64.3,59.7,30.13,NW,315,2.0,-999.0,85,0.00,,,0.00,Wunderground v.1.15,2013-01-14 05:30:00,
2013-01-14 00:36:00,64.2,59.6,30.13,NW,311,1.0,-999.0,85,0.00,,,0.00,Wunderground v.1.15,2013-01-14 05:36:00,
2013-01-14 00:42:00,64.0,59.7,30.13,WNW,303,2.0,-999.0,86,0.00,,,0.00,Wunderground v.1.15,2013-01-14 05:42:00,
2013-01-14 00:48:00,63.9,59.6,30.13,NNW,338,2.0,-999.0,86,0.00,,,0.00,Wunderground v.1.15,2013-01-14 05:48:00,
2013-01-14 00:54:00,63.9,59.6,30.13,NW,326,2.0,-999.0,86,0.00,,,0.00,Wunderground v.1.15,2013-01-14 05:54:00,
2013-01-14 01:00:00,63.8,59.5,30.13,NNW,334,2.0,-999.0,86,0.00,,,0.00,Wunderground v.1.15,2013-01-14 06:00:00,
2013-01-14 01:06:00,63.8,59.5,30.13,North,349,2.0,-999.0,86,0.00,,,0.00,Wunderground v.1.15,2013-01-14 06:06:00,
2013-01-14 01:12:00,63.8,59.9,30.13,NW,306,2.0,-999.0,87,0.00,,,0.00,Wunderground v.1.15,2013-01-14 06:12:00,
2013-01-14 01:18:00,63.7,59.8,30.13,NW,314,2.0,-999.0,87,0.00,,,0.00,Wunderground v.1.15,2013-01-14 06:18:00,
2013-01-14 01:24:00,63.6,59.7,30.14,NNW,340,2.0,-999.0,87,0.00,,,0.00,Wunderground v.1.15,2013-01-14 06:24:00,
2013-01-14 01:30:00,63.6,59.7,30.14,North,360,2.0,-999.0,87,0.00,,,0.00,Wunderground v.1.15,2013-01-14 06:30:00,
2013-01-14 01:36:00,63.5,59.6,30.14,NW,323,1.0,-999.0,87,0.00,,,0.00,Wunderground v.1.15,2013-01-14 06:36:00,
2013-01-14 01:42:00,63.4,59.5,30.15,NNW,331,1.0,-999.0,87,0.00,,,0.00,Wunderground v.1.15,2013-01-14 06:42:00,
2013-01-14 01:48:00,63.3,59.4,30.15,North,349,1.0,-999.0,87,0.00,,,0.00,Wunderground v.1.15,2013-01-14 06:48:00,
2013-01-14 01:54:00,63.2,59.3,30.15,North,5,1.0,-999.0,87,0.00,,,0.00,Wunderground v.1.15,2013-01-14 06:54:00,
2013-01-14 02:00:00,63.1,59.5,30.14,NNW,335,1.0,-999.0,88,0.00,,,0.00,Wunderground v.1.15,2013-01-14 07:00:00,
2013-01-14 02:06:00,63.1,59.5,30.14,WNW,291,1.0,-999.0,88,0.00,,,0.00,Wunderground v.1.15,2013-01-14 07:06:00,
2013-01-14 02:12:00,63.0,59.4,30.14,NNW,333,1.0,-999.0,88,0.00,,,0.00,Wunderground v.1.15,2013-01-14 07:12:00,
2013-01-14 02:18:00,63.0,59.4,30.15,North,352,1.0,-999.0,88,0.00,,,0.00,Wunderground v.1.15,2013-01-14 07:18:00,
2013-01-14 02:24:00,63.0,59.4,30.15,NNW,347,1.0,-999.0,88,0.00,,,0.00,Wunderground v.1.15,2013-01-14 07:24:00,
2013-01-14 02:30:00,62.9,59.3,30.15,North,4,1.0,-999.0,88,0.00,,,0.00,Wunderground v.1.15,2013-01-14 07:30:00,
2013-01-14 02:36:00,62.9,59.3,30.15,NNW,335,1.0,-999.0,88,0.00,,,0.00,Wunderground v.1.15,2013-01-14 07:36:00,
2013-01-14 02:42:00,62.9,59.3,30.15,WNW,299,1.0,-999.0,88,0.00,,,0.00,Wunderground v.1.15,2013-01-14 07:42:00,
2013-01-14 02:48:00,62.9,59.3,30.15,NNW,328,1.0,-999.0,88,0.00,,,0.00,Wunderground v.1.15,2013-01-14 07:48:00,
2013-01-14 02:54:00,62.8,59.2,30.15,NW,318,1.0,-999.0,88,0.00,,,0.00,Wunderground v.1.15,2013-01-14 07:54:00,
2013-01-14 03:00:00,62.9,59.3,30.15,NNW,339,2.0,-999.0,88,0.00,,,0.00,Wunderground v.1.15,2013-01-14 08:00:00,
2013-01-14 03:06:00,63.0,59.4,30.15,NW,305,2.0,-999.0,88,0.00,,,0.00,Wunderground v.1.15,2013-01-14 08:06:00,
2013-01-14 03:12:00,63.0,59.4,30.15,North,6,1.0,-999.0,88,0.00,,,0.00,Wunderground v.1.15,2013-01-14 08:12:00,
2013-01-14 03:18:00,62.9,59.3,30.15,NW,310,1.0,-999.0,88,0.00,,,0.00,Wunderground v.1.15,2013-01-14 08:18:00,
2013-01-14 03:24:00,62.9,59.0,30.15,NNW,334,1.0,-999.0,87,0.00,,,0.00,Wunderground v.1.15,2013-01-14 08:24:00,
2013-01-14 03:30:00,62.9,59.0,30.15,NNW,331,1.0,-999.0,87,0.00,,,0.00,Wunderground v.1.15,2013-01-14 08:30:00,
2013-01-14 03:36:00,62.9,59.0,30.15,NW,308,2.0,-999.0,87,0.00,,,0.00,Wunderground v.1.15,2013-01-14 08:36:00,
2013-01-14 03:42:00,62.9,59.0,30.15,NNW,328,2.0,-999.0,87,0.00,,,0.00,Wunderground v.1.15,2013-01-14 08:42:00,
2013-01-14 03:48:00,63.0,59.1,30.14,NW,323,2.0,-999.0,87,0.00,,,0.00,Wunderground v.1.15,2013-01-14 08:48:00,
2013-01-14 03:54:00,63.0,59.1,30.14,NNW,341,2.0,-999.0,87,0.00,,,0.00,Wunderground v.1.15,2013-01-14 08:54:00,
2013-01-14 04:00:00,62.9,59.0,30.14,NNW,347,2.0,-999.0,87,0.00,,,0.00,Wunderground v.1.15,2013-01-14 09:00:00,
2013-01-14 04:06:00,63.0,58.7,30.14,NW,320,2.0,-999.0,86,0.00,,,0.00,Wunderground v.1.15,2013-01-14 09:06:00,
2013-01-14 04:12:00,63.0,58.7,30.14,North,352,1.0,-999.0,86,0.00,,,0.00,Wunderground v.1.15,2013-01-14 09:12:00,
2013-01-14 04:18:00,62.9,58.6,30.14,NNW,328,1.0,-999.0,86,0.00,,,0.00,Wunderground v.1.15,2013-01-14 09:18:00,
2013-01-14 04:24:00,62.8,58.5,30.13,NNE,18,1.0,-999.0,86,0.00,,,0.00,Wunderground v.1.15,2013-01-14 09:24:00,
2013-01-14 04:30:00,62.7,58.5,30.13,NNW,333,1.0,-999.0,86,0.00,,,0.00,Wunderground v.1.15,2013-01-14 09:30:00,
2013-01-14 04:36:00,62.6,58.7,30.13,NW,326,1.0,-999.0,87,0.00,,,0.00,Wunderground v.1.15,2013-01-14 09:36:00,
2013-01-14 04:42:00,62.6,58.7,30.13,NNW,337,1.0,-999.0,87,0.00,,,0.00,Wunderground v.1.15,2013-01-14 09:42:00,
2013-01-14 04:48:00,62.7,58.5,30.13,NNW,333,2.0,-999.0,86,0.00,,,0.00,Wunderground v.1.15,2013-01-14 09:48:00,
2013-01-14 04:54:00,62.7,58.5,30.12,NW,320,1.0,-999.0,86,0.00,,,0.00,Wunderground v.1.15,2013-01-14 09:54:00,
2013-01-14 05:00:00,62.7,58.5,30.12,North,354,1.0,-999.0,86,0.00,,,0.00,Wunderground v.1.15,2013-01-14 10:00:00,
2013-01-14 05:06:00,62.7,58.5,30.13,NW,310,1.0,-999.0,86,0.00,,,0.00,Wunderground v.1.15,2013-01-14 10:06:00,
2013-01-14 05:12:00,62.6,58.4,30.12,NNW,340,1.0,-999.0,86,0.00,,,0.00,Wunderground v.1.15,2013-01-14 10:12:00,
2013-01-14 05:18:00,62.6,58.4,30.12,WNW,284,1.0,-999.0,86,0.00,,,0.00,Wunderground v.1.15,2013-01-14 10:18:00,
2013-01-14 05:24:00,62.6,58.4,30.12,NNW,328,1.0,-999.0,86,0.00,,,0.00,Wunderground v.1.15,2013-01-14 10:24:00,
2013-01-14 05:30:00,62.6,58.0,30.12,WNW,295,1.0,-999.0,85,0.00,,,0.00,Wunderground v.1.15,2013-01-14 10:30:00,
2013-01-14 05:36:00,62.6,58.0,30.12,WNW,302,1.0,-999.0,85,0.00,,,0.00,Wunderground v.1.15,2013-01-14 10:36:00,
2013-01-14 05:42:00,62.6,58.0,30.13,NNW,327,1.0,-999.0,85,0.00,,,0.00,Wunderground v.1.15,2013-01-14 10:42:00,
2013-01-14 05:48:00,62.5,57.9,30.12,WNW,285,1.0,-999.0,85,0.00,,,0.00,Wunderground v.1.15,2013-01-14 10:48:00,
2013-01-14 05:54:00,62.6,58.0,30.13,NNW,328,1.0,-999.0,85,0.00,,,0.00,Wunderground v.1.15,2013-01-14 10:54:00,
2013-01-14 06:00:00,62.6,58.0,30.13,NW,321,1.0,-999.0,85,0.00,,,0.00,Wunderground v.1.15,2013-01-14 11:00:00,
2013-01-14 06:06:00,62.6,57.7,30.13,NW,318,2.0,-999.0,84,0.00,,,0.00,Wunderground v.1.15,2013-01-14 11:06:00,
2013-01-14 06:12:00,62.5,57.6,30.13,NNW,341,1.0,-999.0,84,0.00,,,0.00,Wunderground v.1.15,2013-01-14 11:12:00,
2013-01-14 06:18:00,62.5,57.6,30.13,West,266,1.0,-999.0,84,0.00,,,0.00,Wunderground v.1.15,2013-01-14 11:18:00,
2013-01-14 06:24:00,62.4,57.5,30.13,NNW,331,1.0,-999.0,84,0.00,,,0.00,Wunderground v.1.15,2013-01-14 11:24:00,
2013-01-14 06:30:00,62.3,57.4,30.13,WSW,257,1.0,-999.0,84,0.00,,,0.00,Wunderground v.1.15,2013-01-14 11:30:00,
2013-01-14 06:36:00,62.3,57.4,30.13,WNW,299,0.0,-999.0,84,0.00,,,0.00,Wunderground v.1.15,2013-01-14 11:36:00,
2013-01-14 06:42:00,62.2,57.6,30.14,NW,314,0.0,-999.0,85,0.00,,,0.00,Wunderground v.1.15,2013-01-14 11:42:00,
2013-01-14 06:48:00,62.1,57.5,30.13,WNW,301,1.0,-999.0,85,0.00,,,0.00,Wunderground v.1.15,2013-01-14 11:48:00,
2013-01-14 06:54:00,62.0,57.4,30.14,NNW,342,1.0,-999.0,85,0.00,,,0.00,Wunderground v.1.15,2013-01-14 11:54:00,
2013-01-14 07:00:00,62.0,57.4,30.14,NNW,335,1.0,-999.0,85,0.00,,,0.00,Wunderground v.1.15,2013-01-14 12:00:00,
2013-01-14 07:06:00,61.9,57.3,30.14,NNW,332,0.0,-999.0,85,0.00,,,0.00,Wunderground v.1.15,2013-01-14 12:06:00,
2013-01-14 07:12:00,62.0,57.4,30.14,NNW,336,0.0,-999.0,85,0.00,,,0.00,Wunderground v.1.15,2013-01-14 12:12:00,
2013-01-14 07:18:00,62.0,57.4,30.15,NW,324,0.0,-999.0,85,0.00,,,0.00,Wunderground v.1.15,2013-01-14 12:18:00,
2013-01-14 07:24:00,62.0,57.4,30.15,NW,316,0.0,-999.0,85,0.00,,,0.00,Wunderground v.1.15,2013-01-14 12:24:00,
2013-01-14 07:30:00,62.0,57.4,30.15,NW,320,0.0,-999.0,85,0.00,,,0.00,Wunderground v.1.15,2013-01-14 12:30:00,
2013-01-14 07:36:00,62.0,57.4,30.15,NNW,328,0.0,-999.0,85,0.00,,,0.00,Wunderground v.1.15,2013-01-14 12:36:00,
2013-01-14 07:42:00,62.1,57.5,30.16,NW,305,1.0,-999.0,85,0.00,,,0.00,Wunderground v.1.15,2013-01-14 12:42:00,
2013-01-14 07:48:00,62.1,57.5,30.16,NNW,335,1.0,-999.0,85,0.00,,,0.00,Wunderground v.1.15,2013-01-14 12:48:00,
2013-01-14 07:54:00,62.2,57.6,30.16,NNW,333,1.0,-999.0,85,0.00,,,0.00,Wunderground v.1.15,2013-01-14 12:54:00,
2013-01-14 08:00:00,62.3,57.7,30.16,NNW,337,1.0,-999.0,85,0.00,,,0.00,Wunderground v.1.15,2013-01-14 13:00:00,
2013-01-14 08:06:00,62.3,57.7,30.16,NNW,327,1.0,-999.0,85,0.00,,,0.00,Wunderground v.1.15,2013-01-14 13:06:00,
2013-01-14 08:12:00,62.3,58.1,30.16,North,354,2.0,-999.0,86,0.00,,,0.00,Wunderground v.1.15,2013-01-14 13:12:00,
2013-01-14 08:18:00,62.3,58.1,30.16,NW,322,2.0,-999.0,86,0.00,,,0.00,Wunderground v.1.15,2013-01-14 13:18:00,
2013-01-14 08:24:00,62.3,58.1,30.17,NW,308,2.0,-999.0,86,0.00,,,0.00,Wunderground v.1.15,2013-01-14 13:24:00,
2013-01-14 08:30:00,62.3,58.4,30.17,NNW,344,1.0,-999.0,87,0.00,,,0.00,Wunderground v.1.15,2013-01-14 13:30:00,
2013-01-14 08:36:00,62.1,58.2,30.17,NNW,335,2.0,-999.0,87,0.00,,,0.00,Wunderground v.1.15,2013-01-14 13:36:00,
2013-01-14 08:42:00,62.0,58.4,30.17,NNW,343,2.0,-999.0,88,0.00,,,0.00,Wunderground v.1.15,2013-01-14 13:42:00,
2013-01-14 08:48:00,61.9,58.6,30.17,NNW,329,2.0,-999.0,89,0.00,,,0.00,Wunderground v.1.15,2013-01-14 13:48:00,
2013-01-14 08:54:00,61.9,58.9,30.17,NW,326,2.0,-999.0,90,0.00,,,0.00,Wunderground v.1.15,2013-01-14 13:54:00,
2013-01-14 09:00:00,61.9,58.9,30.17,North,349,2.0,-999.0,90,0.00,,,0.00,Wunderground v.1.15,2013-01-14 14:00:00,
2013-01-14 09:06:00,62.0,59.0,30.17,NNW,334,2.0,-999.0,90,0.00,,,0.00,Wunderground v.1.15,2013-01-14 14:06:00,
2013-01-14 09:12:00,62.1,59.1,30.18,NW,321,3.0,-999.0,90,0.00,,,0.00,Wunderground v.1.15,2013-01-14 14:12:00,
2013-01-14 09:18:00,62.3,59.3,30.18,NW,312,2.0,-999.0,90,0.00,,,0.00,Wunderground v.1.15,2013-01-14 14:18:00,
2013-01-14 09:24:00,62.4,59.4,30.18,NNW,328,2.0,-999.0,90,0.00,,,0.00,Wunderground v.1.15,2013-01-14 14:24:00,
2013-01-14 09:30:00,62.5,59.5,30.18,WNW,298,2.0,-999.0,90,0.00,,,0.00,Wunderground v.1.15,2013-01-14 14:30:00,
2013-01-14 09:36:00,62.8,59.8,30.17,NW,313,2.0,-999.0,90,0.00,,,0.00,Wunderground v.1.15,2013-01-14 14:36:00,
2013-01-14 09:42:00,63.1,60.1,30.17,NNE,13,2.0,-999.0,90,0.00,,,0.00,Wunderground v.1.15,2013-01-14 14:42:00,
2013-01-14 09:48:00,63.2,60.2,30.17,NW,318,3.0,-999.0,90,0.00,,,0.00,Wunderground v.1.15,2013-01-14 14:48:00,
2013-01-14 09:54:00,63.2,60.2,30.17,WNW,284,2.0,-999.0,90,0.00,,,0.01,Wunderground v.1.15,2013-01-14 14:54:00,
2013-01-14 10:00:00,63.2,60.2,30.18,NNE,16,2.0,-999.0,90,0.00,,,0.01,Wunderground v.1.15,2013-01-14 15:00:00,
2013-01-14 10:06:00,63.2,60.2,30.18,NNW,341,2.0,-999.0,90,0.00,,,0.01,Wunderground v.1.15,2013-01-14 15:06:00,
2013-01-14 10:12:00,63.3,60.3,30.17,NNW,344,2.0,-999.0,90,0.00,,,0.01,Wunderground v.1.15,2013-01-14 15:12:00,
2013-01-14 10:18:00,63.4,60.1,30.17,NW,314,2.0,-999.0,89,0.00,,,0.01,Wunderground v.1.15,2013-01-14 15:18:00,
2013-01-14 10:24:00,63.6,60.3,30.17,NNW,336,2.0,-999.0,89,0.00,,,0.01,Wunderground v.1.15,2013-01-14 15:24:00,
2013-01-14 10:30:00,63.6,60.3,30.18,North,355,2.0,-999.0,89,0.00,,,0.01,Wunderground v.1.15,2013-01-14 15:30:00,
2013-01-14 10:36:00,63.8,60.5,30.18,North,356,3.0,-999.0,89,0.00,,,0.01,Wunderground v.1.15,2013-01-14 15:36:00,
2013-01-14 10:42:00,64.0,60.7,30.18,NNW,341,3.0,-999.0,89,0.00,,,0.01,Wunderground v.1.15,2013-01-14 15:42:00,
2013-01-14 10:48:00,64.3,61.0,30.17,North,357,2.0,-999.0,89,0.00,,,0.01,Wunderground v.1.15,2013-01-14 15:48:00,
2013-01-14 10:54:00,64.6,61.3,30.17,NE,43,3.0,-999.0,89,0.00,,,0.01,Wunderground v.1.15,2013-01-14 15:54:00,
2013-01-14 11:00:00,64.8,61.2,30.17,NNW,334,2.0,-999.0,88,0.00,,,0.01,Wunderground v.1.15,2013-01-14 16:00:00,
2013-01-14 11:06:00,65.1,61.5,30.17,North,4,2.0,-999.0,88,0.00,,,0.01,Wunderground v.1.15,2013-01-14 16:06:00,
2013-01-14 11:12:00,65.3,62.0,30.17,North,8,1.0,-999.0,89,0.00,,,0.01,Wunderground v.1.15,2013-01-14 16:12:00,
2013-01-14 11:18:00,65.4,61.8,30.16,North,351,1.0,-999.0,88,0.00,,,0.01,Wunderground v.1.15,2013-01-14 16:18:00,
2013-01-14 11:24:00,65.6,61.6,30.16,NNE,22,1.0,-999.0,87,0.00,,,0.01,Wunderground v.1.15,2013-01-14 16:24:00,
2013-01-14 11:30:00,65.8,62.1,30.16,NNE,21,2.0,-999.0,88,0.00,,,0.01,Wunderground v.1.15,2013-01-14 16:30:00,
2013-01-14 11:36:00,66.1,62.1,30.16,NNW,331,2.0,-999.0,87,0.00,,,0.01,Wunderground v.1.15,2013-01-14 16:36:00,
2013-01-14 11:42:00,66.3,62.3,30.16,North,355,2.0,-999.0,87,0.00,,,0.01,Wunderground v.1.15,2013-01-14 16:42:00,
2013-01-14 11:48:00,66.4,62.4,30.16,North,1,2.0,-999.0,87,0.00,,,0.01,Wunderground v.1.15,2013-01-14 16:48:00,
2013-01-14 11:54:00,66.5,62.5,30.15,North,1,2.0,-999.0,87,0.00,,,0.01,Wunderground v.1.15,2013-01-14 16:54:00,
2013-01-14 12:00:00,66.7,62.7,30.15,NNE,29,2.0,-999.0,87,0.00,,,0.01,Wunderground v.1.15,2013-01-14 17:00:00,
2013-01-14 12:06:00,66.7,62.7,30.14,NNW,341,1.0,-999.0,87,0.00,,,0.01,Wunderground v.1.15,2013-01-14 17:06:00,
2013-01-14 12:12:00,66.6,62.9,30.14,NNW,332,2.0,-999.0,88,0.00,,,0.01,Wunderground v.1.15,2013-01-14 17:12:00,
2013-01-14 12:18:00,66.5,62.8,30.13,North,358,2.0,-999.0,88,0.00,,,0.01,Wunderground v.1.15,2013-01-14 17:18:00,
2013-01-14 12:24:00,66.5,63.2,30.13,NNW,339,1.0,-999.0,89,0.00,,,0.01,Wunderground v.1.15,2013-01-14 17:24:00,
2013-01-14 12:30:00,66.7,63.4,30.13,NW,309,0.0,-999.0,89,0.00,,,0.01,Wunderground v.1.15,2013-01-14 17:30:00,
2013-01-14 12:36:00,66.8,63.1,30.13,WNW,282,1.0,-999.0,88,0.00,,,0.01,Wunderground v.1.15,2013-01-14 17:36:00,
2013-01-14 12:42:00,66.9,62.9,30.12,NNW,328,1.0,-999.0,87,0.00,,,0.01,Wunderground v.1.15,2013-01-14 17:42:00,
2013-01-14 12:48:00,67.0,63.0,30.12,NNW,341,1.0,-999.0,87,0.00,,,0.01,Wunderground v.1.15,2013-01-14 17:48:00,
2013-01-14 12:54:00,67.2,63.2,30.12,NE,43,1.0,-999.0,87,0.00,,,0.01,Wunderground v.1.15,2013-01-14 17:54:00,
2013-01-14 13:00:00,67.4,63.4,30.11,NE,56,0.0,-999.0,87,0.00,,,0.01,Wunderground v.1.15,2013-01-14 18:00:00,
2013-01-14 13:06:00,67.6,62.9,30.11,NNW,336,1.0,-999.0,85,0.00,,,0.01,Wunderground v.1.15,2013-01-14 18:06:00,
2013-01-14 13:12:00,67.9,63.2,30.11,North,359,1.0,-999.0,85,0.00,,,0.01,Wunderground v.1.15,2013-01-14 18:12:00,
2013-01-14 13:18:00,68.0,63.3,30.11,ENE,63,1.0,-999.0,85,0.00,,,0.01,Wunderground v.1.15,2013-01-14 18:18:00,
2013-01-14 13:24:00,68.4,63.4,30.11,North,349,1.0,-999.0,84,0.00,,,0.01,Wunderground v.1.15,2013-01-14 18:24:00,
2013-01-14 13:30:00,69.0,63.6,30.11,ENE,68,2.0,-999.0,83,0.00,,,0.01,Wunderground v.1.15,2013-01-14 18:30:00,
2013-01-14 13:36:00,69.5,64.1,30.11,North,349,2.0,-999.0,83,0.00,,,0.01,Wunderground v.1.15,2013-01-14 18:36:00,
2013-01-14 13:42:00,69.9,64.2,30.11,NE,41,1.0,-999.0,82,0.00,,,0.01,Wunderground v.1.15,2013-01-14 18:42:00,
2013-01-14 13:48:00,70.2,64.1,30.11,NNW,345,1.0,-999.0,81,0.00,,,0.01,Wunderground v.1.15,2013-01-14 18:48:00,
2013-01-14 13:54:00,70.4,63.6,30.10,NNW,335,2.0,-999.0,79,0.00,,,0.01,Wunderground v.1.15,2013-01-14 18:54:00,
2013-01-14 14:00:00,70.5,64.0,30.10,North,351,1.0,-999.0,80,0.00,,,0.01,Wunderground v.1.15,2013-01-14 19:00:00,
2013-01-14 14:06:00,70.6,63.8,30.10,NNW,336,1.0,-999.0,79,0.00,,,0.01,Wunderground v.1.15,2013-01-14 19:06:00,
2013-01-14 14:12:00,70.9,64.1,30.10,NNW,337,1.0,-999.0,79,0.00,,,0.01,Wunderground v.1.15,2013-01-14 19:12:00,
2013-01-14 14:18:00,71.1,64.3,30.10,NNE,15,1.0,-999.0,79,0.00,,,0.01,Wunderground v.1.15,2013-01-14 19:18:00,
2013-01-14 14:24:00,71.2,64.0,30.11,ENE,66,1.0,-999.0,78,0.00,,,0.01,Wunderground v.1.15,2013-01-14 19:24:00,
2013-01-14 14:30:00,71.2,63.6,30.12,ENE,66,1.0,-999.0,77,0.00,,,0.01,Wunderground v.1.15,2013-01-14 19:30:00,
2013-01-14 14:36:00,71.0,63.8,30.12,ENE,66,2.0,-999.0,78,0.00,,,0.01,Wunderground v.1.15,2013-01-14 19:36:00,
2013-01-14 14:42:00,70.6,63.8,30.12,ENE,61,3.0,-999.0,79,0.00,,,0.01,Wunderground v.1.15,2013-01-14 19:42:00,
2013-01-14 14:48:00,70.5,64.0,30.12,ESE,110,1.0,-999.0,80,0.00,,,0.01,Wunderground v.1.15,2013-01-14 19:48:00,
2013-01-14 14:54:00,70.4,63.9,30.12,East,79,0.0,-999.0,80,0.00,,,0.01,Wunderground v.1.15,2013-01-14 19:54:00,
2013-01-14 15:00:00,70.5,64.0,30.12,ENE,71,0.0,-999.0,80,0.00,,,0.01,Wunderground v.1.15,2013-01-14 20:00:00,
2013-01-14 15:06:00,70.8,64.0,30.12,ENE,66,0.0,-999.0,79,0.00,,,0.01,Wunderground v.1.15,2013-01-14 20:06:00,
2013-01-14 15:12:00,71.0,64.2,30.12,ESE,104,0.0,-999.0,79,0.00,,,0.01,Wunderground v.1.15,2013-01-14 20:12:00,
2013-01-14 15:18:00,71.2,64.4,30.13,SE,131,0.0,-999.0,79,0.00,,,0.01,Wunderground v.1.15,2013-01-14 20:18:00,
2013-01-14 15:24:00,71.3,64.4,30.13,SE,131,0.0,-999.0,79,0.00,,,0.01,Wunderground v.1.15,2013-01-14 20:24:00,
2013-01-14 15:30:00,71.4,64.5,30.13,SE,131,0.0,-999.0,79,0.00,,,0.01,Wunderground v.1.15,2013-01-14 20:30:00,
2013-01-14 15:36:00,71.4,64.2,30.13,SE,131,0.0,-999.0,78,0.00,,,0.01,Wunderground v.1.15,2013-01-14 20:36:00,
2013-01-14 15:42:00,71.4,64.2,30.13,East,99,0.0,-999.0,78,0.00,,,0.01,Wunderground v.1.15,2013-01-14 20:42:00,
2013-01-14 15:48:00,71.3,64.4,30.13,East,91,0.0,-999.0,79,0.00,,,0.01,Wunderground v.1.15,2013-01-14 20:48:00,
2013-01-14 15:54:00,71.2,64.4,30.13,East,79,0.0,-999.0,79,0.00,,,0.01,Wunderground v.1.15,2013-01-14 20:54:00,
2013-01-14 16:00:00,71.1,64.3,30.13,ESE,108,0.0,-999.0,79,0.00,,,0.01,Wunderground v.1.15,2013-01-14 21:00:00,
2013-01-14 16:06:00,71.0,64.5,30.13,ESE,108,0.0,-999.0,80,0.00,,,0.01,Wunderground v.1.15,2013-01-14 21:06:00,
2013-01-14 16:12:00,71.0,64.5,30.13,ESE,108,0.0,-999.0,80,0.00,,,0.01,Wunderground v.1.15,2013-01-14 21:12:00,
2013-01-14 16:18:00,71.0,64.5,30.13,ESE,108,0.0,-999.0,80,0.00,,,0.01,Wunderground v.1.15,2013-01-14 21:18:00,
2013-01-14 16:24:00,70.9,64.1,30.13,SSE,153,0.0,-999.0,79,0.00,,,0.01,Wunderground v.1.15,2013-01-14 21:24:00,
2013-01-14 16:30:00,70.6,64.5,30.13,SSE,153,0.0,-999.0,81,0.00,,,0.01,Wunderground v.1.15,2013-01-14 21:30:00,
2013-01-14 16:36:00,70.5,64.4,30.13,SSE,153,0.0,-999.0,81,0.00,,,0.01,Wunderground v.1.15,2013-01-14 21:36:00,
2013-01-14 16:42:00,70.3,64.5,30.13,SSE,153,0.0,-999.0,82,0.00,,,0.01,Wunderground v.1.15,2013-01-14 21:42:00,
2013-01-14 16:48:00,69.9,64.2,30.14,SSE,153,0.0,-999.0,82,0.00,,,0.01,Wunderground v.1.15,2013-01-14 21:48:00,
2013-01-14 16:54:00,69.7,64.3,30.14,SSE,153,0.0,-999.0,83,0.00,,,0.01,Wunderground v.1.15,2013-01-14 21:54:00,
2013-01-14 17:00:00,69.5,64.5,30.14,SSE,153,0.0,-999.0,84,0.00,,,0.01,Wunderground v.1.15,2013-01-14 22:00:00,
2013-01-14 17:06:00,69.2,64.2,30.14,SSE,153,0.0,-999.0,84,0.00,,,0.01,Wunderground v.1.15,2013-01-14 22:06:00,
2013-01-14 17:12:00,68.9,63.9,30.14,SSE,153,0.0,-999.0,84,0.00,,,0.01,Wunderground v.1.15,2013-01-14 22:12:00,
2013-01-14 17:18:00,68.6,63.9,30.14,SSE,153,0.0,-999.0,85,0.00,,,0.01,Wunderground v.1.15,2013-01-14 22:18:00,
2013-01-14 17:24:00,68.4,63.7,30.14,SSE,153,0.0,-999.0,85,0.00,,,0.01,Wunderground v.1.15,2013-01-14 22:24:00,
2013-01-14 17:30:00,68.2,63.9,30.15,SSE,153,0.0,-999.0,86,0.00,,,0.01,Wunderground v.1.15,2013-01-14 22:30:00,
2013-01-14 17:36:00,67.9,63.6,30.15,SSE,153,0.0,-999.0,86,0.00,,,0.01,Wunderground v.1.15,2013-01-14 22:36:00,
2013-01-14 17:42:00,67.5,63.8,30.14,SSE,153,0.0,-999.0,88,0.00,,,0.01,Wunderground v.1.15,2013-01-14 22:42:00,
2013-01-14 17:48:00,67.2,63.5,30.14,SSE,153,0.0,-999.0,88,0.00,,,0.01,Wunderground v.1.15,2013-01-14 22:48:00,
2013-01-14 17:54:00,67.0,63.3,30.14,SSE,153,0.0,-999.0,88,0.00,,,0.01,Wunderground v.1.15,2013-01-14 22:54:00,
2013-01-14 18:00:00,66.9,63.2,30.15,SSE,153,0.0,-999.0,88,0.00,,,0.01,Wunderground v.1.15,2013-01-14 23:00:00,
2013-01-14 18:06:00,66.7,63.0,30.15,SSE,153,0.0,-999.0,88,0.00,,,0.01,Wunderground v.1.15,2013-01-14 23:06:00,
2013-01-14 18:12:00,66.6,62.9,30.15,SSE,153,0.0,-999.0,88,0.00,,,0.01,Wunderground v.1.15,2013-01-14 23:12:00,
2013-01-14 18:18:00,66.4,62.7,30.15,SSE,153,0.0,-999.0,88,0.00,,,0.01,Wunderground v.1.15,2013-01-14 23:18:00,
2013-01-14 18:24:00,66.3,63.0,30.15,SSE,153,0.0,-999.0,89,0.00,,,0.01,Wunderground v.1.15,2013-01-14 23:24:00,
2013-01-14 18:30:00,66.3,63.0,30.15,SSE,153,0.0,-999.0,89,0.00,,,0.01,Wunderground v.1.15,2013-01-14 23:30:00,
2013-01-14 18:36:00,66.2,63.2,30.15,SSE,153,0.0,-999.0,90,0.00,,,0.01,Wunderground v.1.15,2013-01-14 23:36:00,
2013-01-14 18:42:00,66.2,62.9,30.15,SSE,153,0.0,-999.0,89,0.00,,,0.01,Wunderground v.1.15,2013-01-14 23:42:00,
2013-01-14 18:48:00,66.1,62.8,30.15,SSE,154,0.0,-999.0,89,0.00,,,0.01,Wunderground v.1.15,2013-01-14 23:48:00,
2013-01-14 18:54:00,66.1,62.8,30.15,SSE,154,0.0,-999.0,89,0.00,,,0.01,Wunderground v.1.15,2013-01-14 23:54:00,
2013-01-14 19:00:00,66.0,62.7,30.15,SSE,154,0.0,-999.0,89,0.00,,,0.01,Wunderground v.1.15,2013-01-15 00:00:00,
2013-01-14 19:06:00,65.9,62.6,30.15,SSE,154,0.0,-999.0,89,0.00,,,0.01,Wunderground v.1.15,2013-01-15 00:06:00,
2013-01-14 19:12:00,65.7,62.7,30.15,SSE,154,0.0,-999.0,90,0.00,,,0.01,Wunderground v.1.15,2013-01-15 00:12:00,
2013-01-14 19:18:00,65.6,62.6,30.15,SSE,154,0.0,-999.0,90,0.00,,,0.01,Wunderground v.1.15,2013-01-15 00:18:00,
2013-01-14 19:24:00,65.4,62.4,30.15,SSE,154,0.0,-999.0,90,0.00,,,0.01,Wunderground v.1.15,2013-01-15 00:24:00,
2013-01-14 19:30:00,65.2,62.2,30.15,SSE,154,0.0,-999.0,90,0.00,,,0.01,Wunderground v.1.15,2013-01-15 00:30:00,
2013-01-14 19:36:00,64.9,61.9,30.15,SSE,154,0.0,-999.0,90,0.00,,,0.01,Wunderground v.1.15,2013-01-15 00:36:00,
2013-01-14 19:42:00,64.7,61.7,30.15,SSE,154,0.0,-999.0,90,0.00,,,0.01,Wunderground v.1.15,2013-01-15 00:42:00,
2013-01-14 19:48:00,64.4,61.4,30.15,SSE,154,0.0,-999.0,90,0.00,,,0.01,Wunderground v.1.15,2013-01-15 00:48:00,
2013-01-14 19:54:00,64.1,61.4,30.15,SSE,154,0.0,-999.0,91,0.00,,,0.01,Wunderground v.1.15,2013-01-15 00:54:00,
2013-01-14 20:00:00,63.9,61.5,30.15,SSE,154,0.0,-999.0,92,0.00,,,0.01,Wunderground v.1.15,2013-01-15 01:00:00,
2013-01-14 20:06:00,63.6,61.2,30.15,SSE,154,0.0,-999.0,92,0.00,,,0.01,Wunderground v.1.15,2013-01-15 01:06:00,
2013-01-14 20:12:00,63.2,60.8,30.15,SSE,154,0.0,-999.0,92,0.00,,,0.01,Wunderground v.1.15,2013-01-15 01:12:00,
2013-01-14 20:18:00,62.9,60.5,30.15,SSE,154,0.0,-999.0,92,0.00,,,0.01,Wunderground v.1.15,2013-01-15 01:18:00,
2013-01-14 20:24:00,62.7,60.6,30.15,SSE,154,0.0,-999.0,93,0.00,,,0.01,Wunderground v.1.15,2013-01-15 01:24:00,
2013-01-14 20:30:00,62.4,60.3,30.15,SSE,154,0.0,-999.0,93,0.00,,,0.01,Wunderground v.1.15,2013-01-15 01:30:00,
2013-01-14 20:36:00,62.1,60.1,30.15,SSE,154,0.0,-999.0,93,0.00,,,0.01,Wunderground v.1.15,2013-01-15 01:36:00,
2013-01-14 20:42:00,61.9,60.2,30.14,SSE,154,0.0,-999.0,94,0.00,,,0.01,Wunderground v.1.15,2013-01-15 01:42:00,
2013-01-14 20:48:00,61.7,60.0,30.14,SSE,154,0.0,-999.0,94,0.00,,,0.01,Wunderground v.1.15,2013-01-15 01:48:00,
2013-01-14 20:54:00,61.4,59.7,30.14,SSE,154,0.0,-999.0,94,0.00,,,0.01,Wunderground v.1.15,2013-01-15 01:54:00,
2013-01-14 21:00:00,61.2,59.5,30.14,SSE,154,0.0,-999.0,94,0.00,,,0.01,Wunderground v.1.15,2013-01-15 02:00:00,
2013-01-14 21:06:00,61.1,59.4,30.14,SSE,154,0.0,-999.0,94,0.00,,,0.01,Wunderground v.1.15,2013-01-15 02:06:00,
2013-01-14 21:12:00,61.0,59.3,30.14,SSE,154,0.0,-999.0,94,0.00,,,0.01,Wunderground v.1.15,2013-01-15 02:12:00,
2013-01-14 21:18:00,60.8,59.1,30.14,SSE,154,0.0,-999.0,94,0.00,,,0.01,Wunderground v.1.15,2013-01-15 02:18:00,
2013-01-14 21:24:00,60.8,59.4,30.14,SSE,154,0.0,-999.0,95,0.00,,,0.01,Wunderground v.1.15,2013-01-15 02:24:00,
2013-01-14 21:30:00,61.3,60.2,30.14,NNW,333,0.0,-999.0,96,0.00,,,0.01,Wunderground v.1.15,2013-01-15 02:30:00,
2013-01-14 21:36:00,61.8,60.6,30.13,WNW,296,0.0,-999.0,96,0.00,,,0.01,Wunderground v.1.15,2013-01-15 02:36:00,
2013-01-14 21:42:00,62.9,60.8,30.13,WNW,285,1.0,-999.0,93,0.00,,,0.01,Wunderground v.1.15,2013-01-15 02:42:00,
2013-01-14 21:48:00,64.0,61.0,30.13,NNW,345,1.0,-999.0,90,0.00,,,0.01,Wunderground v.1.15,2013-01-15 02:48:00,
2013-01-14 21:54:00,65.0,61.4,30.13,NNW,333,1.0,-999.0,88,0.00,,,0.01,Wunderground v.1.15,2013-01-15 02:54:00,
2013-01-14 22:00:00,65.5,61.2,30.13,West,273,1.0,-999.0,86,0.00,,,0.01,Wunderground v.1.15,2013-01-15 03:00:00,
2013-01-14 22:06:00,65.7,61.1,30.14,NNW,344,0.0,-999.0,85,0.00,,,0.01,Wunderground v.1.15,2013-01-15 03:06:00,
2013-01-14 22:12:00,65.7,61.1,30.14,NNW,336,0.0,-999.0,85,0.00,,,0.01,Wunderground v.1.15,2013-01-15 03:12:00,
2013-01-14 22:18:00,65.4,60.8,30.14,NNW,335,0.0,-999.0,85,0.00,,,0.01,Wunderground v.1.15,2013-01-15 03:18:00,
2013-01-14 22:24:00,65.1,60.8,30.14,WNW,303,0.0,-999.0,86,0.00,,,0.01,Wunderground v.1.15,2013-01-15 03:24:00,
2013-01-14 22:30:00,65.2,60.9,30.14,NW,311,1.0,-999.0,86,0.00,,,0.01,Wunderground v.1.15,2013-01-15 03:30:00,
2013-01-14 22:36:00,65.2,60.6,30.14,NW,318,0.0,-999.0,85,0.00,,,0.01,Wunderground v.1.15,2013-01-15 03:36:00,
2013-01-14 22:42:00,65.2,60.9,30.14,NNW,335,1.0,-999.0,86,0.00,,,0.01,Wunderground v.1.15,2013-01-15 03:42:00,
2013-01-14 22:48:00,65.3,60.7,30.14,NW,315,1.0,-999.0,85,0.00,,,0.01,Wunderground v.1.15,2013-01-15 03:48:00,
2013-01-14 22:54:00,65.4,60.8,30.14,WNW,298,1.0,-999.0,85,0.00,,,0.01,Wunderground v.1.15,2013-01-15 03:54:00,
2013-01-14 23:00:00,65.6,61.0,30.14,NNW,328,1.0,-999.0,85,0.00,,,0.01,Wunderground v.1.15,2013-01-15 04:00:00,
2013-01-14 23:06:00,65.8,60.8,30.14,North,3,1.0,-999.0,84,0.00,,,0.01,Wunderground v.1.15,2013-01-15 04:06:00,
2013-01-14 23:12:00,65.8,60.8,30.15,NNE,12,1.0,-999.0,84,0.00,,,0.01,Wunderground v.1.15,2013-01-15 04:12:00,
2013-01-14 23:18:00,65.7,60.7,30.15,North,1,1.0,-999.0,84,0.00,,,0.01,Wunderground v.1.15,2013-01-15 04:18:00,
2013-01-14 23:24:00,65.7,60.7,30.15,NNW,328,1.0,-999.0,84,0.00,,,0.01,Wunderground v.1.15,2013-01-15 04:24:00,
2013-01-14 23:30:00,65.7,60.7,30.15,North,358,1.0,-999.0,84,0.00,,,0.01,Wunderground v.1.15,2013-01-15 04:30:00,
2013-01-14 23:36:00,65.7,60.7,30.15,NNW,331,2.0,-999.0,84,0.00,,,0.01,Wunderground v.1.15,2013-01-15 04:36:00,
2013-01-14 23:42:00,65.8,60.8,30.15,NNW,347,1.0,-999.0,84,0.00,,,0.01,Wunderground v.1.15,2013-01-15 04:42:00,
2013-01-14 23:48:00,65.8,60.8,30.15,WNW,285,1.0,-999.0,84,0.00,,,0.01,Wunderground v.1.15,2013-01-15 04:48:00,
2013-01-14 23:54:00,65.8,60.8,30.15,WNW,299,1.0,-999.0,84,0.00,,,0.01,Wunderground v.1.15,2013-01-15 04:54:00,